KI1U Weather Reports


time (UTC)temp
C
wind
direction
speed
KPH
gust
KPH
rain 1hr
cm
rain 24hr
cm
rain mn
cm
humidity
%
barometer
mb
20260507104509 8 268 0.0 1.6 0.05 1.04 0.89 93 1008.3
20260507103012 9 286 0.0 1.6 0.03 1.02 0.86 92 1008.1
20260507101516 9 269 0.0 3.2 0.00 0.99 0.84 92 1007.9
20260507100026 10 54 0.0 0.0 0.03 0.99 0.84 93 1008.0
20260507094524 10 53 0.0 0.0 0.05 0.99 0.84 92 1008.1
20260507093010 10 54 0.0 1.6 0.05 0.99 0.84 92 1007.9
20260507091513 10 267 0.0 1.6 0.08 0.99 0.84 92 1007.8
20260507090019 10 306 0.0 0.0 0.10 0.97 0.81 92 1007.5
20260507084524 10 306 0.0 0.0 0.13 0.94 0.79 92 1007.7
20260507083023 10 279 0.0 1.6 0.38 0.94 0.79 92 1007.6
20260507081508 10 257 0.0 3.2 0.76 0.91 0.76 91 1007.5
20260507080012 11 285 0.0 4.8 0.71 0.86 0.71 91 1007.3
20260507074528 11 269 0.0 4.8 0.66 0.81 0.66 90 1007.1
20260507073024 11 260 0.0 8.0 0.41 0.56 0.41 89 1008.0
20260507071531 12 271 0.0 4.8 0.00 0.15 0.00 88 1006.9
20260507070012 12 210 0.0 3.2 0.00 0.15 0.00 89 1006.5
20260507064518 12 313 0.0 6.4 0.00 0.15 0.00 90 1006.2
20260507063021 13 257 0.0 3.2 0.00 0.15 0.00 91 1006.7
20260507061531 13 251 0.0 1.6 0.00 0.15 0.00 92 1006.6
20260507060026 13 264 0.0 1.6 0.00 0.15 0.00 92 1006.6
20260507054516 13 119 0.0 1.6 0.00 0.15 0.00 92 1006.9
20260507053023 13 333 0.0 1.6 0.00 0.15 0.00 92 1006.9
20260507051522 13 302 0.0 1.6 0.00 0.15 0.00 93 1007.2
20260507050025 13 240 0.0 1.6 0.00 0.15 0.00 93 1007.3
20260507044528 13 259 1.6 6.4 0.00 0.15 0.00 93 1007.3
20260507043013 13 89 0.0 6.4 0.00 0.15 0.00 93 1007.3
20260507041520 13 236 0.0 1.6 0.00 0.15 0.00 93 1007.4
20260507040023 13 200 0.0 1.6 0.00 0.15 0.00 93 1007.2
20260507034535 13 212 0.0 0.0 0.00 0.15 0.15 93 1007.4
20260507033027 13 78 0.0 3.2 0.00 0.15 0.15 93 1007.3
20260507031516 13 223 0.0 4.8 0.00 0.15 0.15 93 1007.6
20260507030022 13 86 0.0 3.2 0.00 0.15 0.15 93 1007.4
20260507024525 13 118 0.0 3.2 0.00 0.15 0.15 93 1007.5
20260507023028 13 283 0.0 1.6 0.00 0.15 0.15 93 1007.5
20260507021528 13 112 0.0 3.2 0.00 0.15 0.15 93 1007.7
20260507020019 13 49 0.0 6.4 0.00 0.15 0.15 93 1007.8
20260507014526 13 142 0.0 1.6 0.00 0.15 0.15 93 1007.6
20260507013025 13 113 0.0 6.4 0.00 0.15 0.15 93 1007.7
20260507011527 13 97 3.2 8.0 0.00 0.15 0.15 93 1007.8
20260507010033 12 103 0.0 3.2 0.00 0.15 0.15 93 1008.0
20260507004522 12 280 1.6 6.4 0.00 0.15 0.15 93 1008.1
20260507003024 12 113 0.0 11.3 0.00 0.15 0.15 92 1007.7
20260507001530 12 233 1.6 14.5 0.00 0.15 0.15 92 1007.7
20260507000029 12 131 3.2 14.5 0.00 0.15 0.15 92 1007.7
20260506234543 12 193 4.8 14.5 0.00 0.15 0.15 92 1007.7
20260506233022 12 117 3.2 9.7 0.03 0.15 0.15 92 1007.6
20260506231525 12 112 3.2 11.3 0.03 0.15 0.15 91 1007.6
20260506230027 12 215 3.2 17.7 0.03 0.15 0.15 91 1007.8
20260506224530 13 140 3.2 9.7 0.05 0.15 0.15 91 1007.7
20260506223031 13 157 3.2 9.7 0.03 0.13 0.13 91 1007.7
20260506221520 13 199 1.6 11.3 0.05 0.13 0.13 90 1007.7
20260506220034 13 238 1.6 8.0 0.05 0.13 0.13 90 1007.6
20260506214528 13 112 1.6 9.7 0.03 0.10 0.10 90 1008.0
20260506213026 13 196 3.2 12.9 0.05 0.10 0.10 89 1008.1
20260506211527 13 130 4.8 16.1 0.03 0.08 0.08 88 1008.2
20260506210022 14 165 1.6 11.3 0.03 0.08 0.08 88 1008.3
20260506204526 14 91 4.8 16.1 0.03 0.08 0.08 87 1008.4
20260506203028 14 143 4.8 14.5 0.00 0.05 0.05 87 1008.5
20260506201526 14 347 3.2 12.9 0.05 0.05 0.05 87 1008.6
20260506200022 15 197 4.8 20.9 0.05 0.05 0.05 86 1008.8
20260506194531 15 109 4.8 16.1 0.05 0.05 0.05 86 1008.9
20260506193009 14 93 4.8 12.9 0.05 0.05 0.05 85 1009.0
20260506191512 15 96 1.6 11.3 0.00 0.00 0.00 82 1009.1
20260506190020 15 109 3.2 17.7 0.00 0.00 0.00 78 1009.3
20260506184526 16 96 4.8 16.1 0.00 0.00 0.00 75 1009.4
20260506183023 16 271 4.8 16.1 0.00 0.00 0.00 73 1009.7
20260506181510 16 203 3.2 25.7 0.00 0.00 0.00 72 1009.6
20260506180014 17 240 6.4 24.1 0.00 0.00 0.00 71 1009.8
20260506174518 17 131 4.8 24.1 0.00 0.00 0.00 69 1010.1
20260506173026 18 245 9.7 27.4 0.00 0.00 0.00 67 1010.2
20260506171525 18 108 6.4 20.9 0.00 0.00 0.00 66 1010.6
20260506170016 19 36 8.0 24.1 0.00 0.00 0.00 65 1010.3
20260506164518 19 106 8.0 25.7 0.00 0.00 0.00 64 1010.4
20260506163019 18 44 3.2 20.9 0.00 0.00 0.00 67 1010.7
20260506161524 18 141 9.7 24.1 0.00 0.00 0.00 66 1010.9
20260506160035 18 234 6.4 22.5 0.00 0.00 0.00 65 1010.9
20260506154517 20 148 4.8 24.1 0.00 0.00 0.00 63 1011.0
20260506153019 20 115 4.8 16.1 0.00 0.00 0.00 64 1011.1
20260506151522 19 108 6.4 14.5 0.00 0.00 0.00 65 1011.2
20260506150025 19 82 4.8 17.7 0.00 0.00 0.00 65 1011.2
20260506144526 18 127 4.8 19.3 0.00 0.00 0.00 67 1011.4
20260506143016 18 198 3.2 12.9 0.00 0.00 0.00 67 1011.1
20260506141520 18 123 4.8 14.5 0.00 0.00 0.00 68 1011.5
20260506140024 18 145 3.2 9.7 0.00 0.00 0.00 69 1011.2
20260506134526 17 212 1.6 14.5 0.00 0.00 0.00 71 1011.2
20260506133026 17 123 3.2 14.5 0.00 0.00 0.00 72 1011.6
20260506131537 16 132 3.2 16.1 0.00 0.00 0.00 73 1011.9
20260506130034 16 150 6.4 12.9 0.00 0.00 0.00 75 1011.8
20260506124524 16 248 4.8 14.5 0.00 0.00 0.00 77 1011.7
20260506123026 15 61 4.8 11.3 0.00 0.00 0.00 79 1011.7
20260506121526 15 154 1.6 9.7 0.00 0.00 0.00 81 1011.7
20260506120021 14 179 4.8 9.7 0.00 0.00 0.00 82 1011.9
20260506114523 13 189 1.6 12.9 0.00 0.00 0.00 83 1012.3
20260506113026 13 113 1.6 14.5 0.00 0.00 0.00 84 1012.3
20260506111525 13 126 1.6 8.0 0.00 0.00 0.00 86 1012.2
20260506110015 13 136 0.0 8.0 0.00 0.00 0.00 86 1012.2